Addison, TX

9:50 AM CST on February 20, 2017 (GMT -0600)
Addison

Weather History for KADS - January, 2013

Change the Weather History Date:

Friday, January 25, 2013

  Actual Average Record
Temperature  
Mean Temperature 48 °F -  
Max Temperature 53 °F 55 °F 80 °F (2005)
Min Temperature 44 °F 38 °F 30 °F (2014)
Degree Days  
Heating Degree Days 16    
Moisture  
Dew Point 43 °F    
Average Humidity 81    
Maximum Humidity 100    
Minimum Humidity 62    
Precipitation  
Precipitation 0.00 in - - ()
Sea Level Pressure  
Sea Level Pressure 30.13 in    
Wind  
Wind Speed 5 mph (North)    
Max Wind Speed 10 mph    
Max Gust Speed -    
Visibility 6 miles    
Events Fog    
Averages and records for this station are not official NWS values.
T = Trace of Precipitation, MM = Missing Value Source: NWS Daily Summary

Daily Weather History Graph

Daily Weather History Graph

Search for Another Location

Airport or City:

Trip Planner

Search our weather history database for the weather conditions in past years. The results will help you decide how hot, cold, wet, or windy it might be!

Date:

Astronomy

Jan. 25, 2013 Rise Set
Actual Time 7:26 AM CST 5:53 PM CST
Civil Twilight 7:00 AM CST 6:19 PM CST
Nautical Twilight 6:30 AM CST 6:49 PM CST
Astronomical Twilight 6:01 AM CST 7:18 PM CST
Moon 4:51 PM CST (1/25) 6:06 AM CST (1/25)
Length of Visible Light 11h 19m
Length of Day
10h 26m
Waxing Gibbous, 98% of the Moon is Illuminated
Jan 25
Waxing Gibbous
Jan 26
Full
Feb 3
Last Quarter
Feb 10
New
Feb 17
First Quarter

Hourly Weather History & Observations

Time (CST) Temp. Windchill Dew Point Humidity Pressure Visibility Wind Dir Wind Speed Gust Speed Precip Events Conditions
12:15 AM 53.6 °F - 50.0 °F 88% 30.05 in 10.0 mi WNW 3.5 mph - N/A   Clear
12:55 AM 53.6 °F - 46.4 °F 77% 30.04 in 10.0 mi West 3.5 mph - N/A   Clear
1:15 AM 51.8 °F - 44.6 °F 76% 30.03 in 10.0 mi Calm Calm - N/A   Clear
1:35 AM 51.8 °F - 44.6 °F 76% 30.04 in 10.0 mi Calm Calm - N/A   Clear
1:55 AM 51.8 °F - 44.6 °F 76% 30.06 in 10.0 mi WNW 3.5 mph - N/A   Clear
2:15 AM 51.8 °F - 44.6 °F 76% 30.07 in 10.0 mi WNW 4.6 mph - N/A   Scattered Clouds
2:35 AM 51.8 °F - 50.0 °F 94% 30.06 in 7.0 mi Calm Calm - N/A   Mostly Cloudy
2:55 AM 51.8 °F - 51.8 °F 100% 30.06 in 2.5 mi Calm Calm - N/A   Overcast
3:15 AM 51.8 °F - 51.8 °F 100% 30.05 in 0.2 mi Calm Calm - N/A Fog Fog
3:35 AM 51.8 °F - 51.8 °F 100% 30.05 in 0.2 mi Calm Calm - N/A Fog Fog
3:55 AM 51.8 °F - 51.8 °F 100% 30.05 in 0.2 mi SW 3.5 mph - N/A Fog Fog
4:15 AM 50.0 °F - 50.0 °F 100% 30.04 in 0.2 mi Calm Calm - N/A Fog Fog
4:55 AM 50.0 °F - 50.0 °F 100% 30.06 in 0.2 mi West 3.5 mph - N/A Fog Fog
5:50 AM 51.8 °F - 50.0 °F 94% 30.07 in 0.2 mi NNW 5.8 mph - N/A Fog Fog
6:51 AM 48.2 °F - 48.2 °F 100% 30.10 in 0.5 mi North 9.2 mph - N/A Fog Fog
7:49 AM 46.4 °F 42.4 °F 44.6 °F 93% 30.14 in 0.5 mi North 8.1 mph - N/A Fog Fog
8:29 AM 46.4 °F 41.9 °F 44.6 °F 93% 30.15 in 1.0 mi North 9.2 mph - N/A   Overcast
8:47 AM 46.4 °F 41.9 °F 44.6 °F 93% 30.16 in 0.8 mi North 9.2 mph - N/A   Overcast
9:14 AM 46.4 °F 43.5 °F 44.6 °F 93% 30.17 in 1.0 mi NE 5.8 mph - N/A   Overcast
9:47 AM 46.4 °F 41.5 °F 42.8 °F 87% 30.19 in 2.0 mi NNE 10.4 mph - N/A   Overcast
10:06 AM 46.4 °F 41.9 °F 44.6 °F 93% 30.21 in 3.0 mi North 9.2 mph - N/A   Overcast
10:47 AM 44.6 °F 39.7 °F 42.8 °F 93% 30.21 in 5.0 mi North 9.2 mph - N/A   Overcast
11:59 AM 44.6 °F 39.2 °F 41.0 °F 87% 30.19 in 5.0 mi NNW 10.4 mph - N/A   Overcast
12:47 PM 46.4 °F 41.5 °F 41.0 °F 81% 30.17 in 7.0 mi North 10.4 mph - N/A   Overcast
1:20 PM 48.2 °F - 42.8 °F 82% 30.10 in 7.0 mi North 9.2 mph - N/A   Overcast
1:49 PM 50.0 °F - 41.0 °F 71% 30.16 in 8.0 mi NNW 9.2 mph - N/A   Overcast
2:47 PM 50.0 °F - 41.0 °F 71% 30.15 in 8.0 mi NNW 8.1 mph - N/A   Overcast
3:52 PM 50.0 °F - 41.0 °F 71% 30.16 in 9.0 mi NNW 9.2 mph - N/A   Overcast
4:47 PM 50.0 °F - 39.2 °F 66% 30.16 in 10.0 mi NW 9.2 mph - N/A   Overcast
5:47 PM 50.0 °F - 39.2 °F 66% 30.16 in 10.0 mi North 10.4 mph - N/A   Overcast
6:47 PM 48.2 °F - 37.4 °F 66% 30.17 in 9.0 mi North 5.8 mph - N/A   Overcast
8:50 PM 48.2 °F - 37.4 °F 66% 30.17 in 8.0 mi NE 8.1 mph - N/A   Overcast
9:15 PM 46.4 °F 43.5 °F 35.6 °F 66% 30.17 in 10.0 mi NE 5.8 mph - N/A   Overcast
9:35 PM 46.4 °F 42.9 °F 35.6 °F 66% 30.17 in 10.0 mi ENE 6.9 mph - N/A   Overcast
9:47 PM 48.2 °F - 35.6 °F 62% 30.18 in 8.0 mi ENE 6.9 mph - N/A   Overcast
9:55 PM 46.4 °F 45.2 °F 35.6 °F 66% 30.17 in 10.0 mi ENE 3.5 mph - N/A   Overcast
10:15 PM 46.4 °F 44.3 °F 35.6 °F 66% 30.18 in 10.0 mi NNE 4.6 mph - N/A   Overcast
10:35 PM 46.4 °F 42.9 °F 35.6 °F 66% 30.18 in 10.0 mi NE 6.9 mph - N/A   Overcast
10:55 PM 46.4 °F 42.9 °F 35.6 °F 66% 30.18 in 10.0 mi ENE 6.9 mph - N/A   Overcast
11:15 PM 46.4 °F 42.9 °F 35.6 °F 66% 30.19 in 10.0 mi ENE 6.9 mph - N/A   Overcast
11:35 PM 46.4 °F 44.3 °F 35.6 °F 66% 30.21 in 10.0 mi NNE 4.6 mph - N/A   Overcast
11:55 PM 46.4 °F 45.2 °F 35.6 °F 66% 30.21 in 10.0 mi NNE 3.5 mph - N/A   Overcast